User: anonymous   Login
Location: Unspecified
(0.0000°N, 0.0000°E)
Time: 06:08:53
(UTC+00:00)
Language:

OPAL - Orbit

View from above orbital plane
View from above orbital plane
View from above satellite
View from above satellite

Ground track
Ground track

The orbit data is extracted from the following two-line orbital elements,

1 26063U 00004C   17296.57202263 -.00000006 +00000-0 +18058-4 0  9996
2 26063 100.2242 324.0829 0035914 307.5137 052.2781 14.36678245929614
Epoch (UTC): 23 October 2017 13:43:42
Eccentricity: 0.0035914
inclination: 100.2242°
perigee height: 744 km
apogee height: 795 km
right ascension of ascending node: 324.0829°
argument of perigee: 307.5137°
revolutions per day: 14.36678245
mean anomaly at epoch: 52.2781°
orbit number at epoch: 92961

The dashed part of the orbit path shows where the satellite is in the earth's shadow,  

DLR